Wind_Speed
13 14 14 14 15 18 22 26 30 33 36 40 44 47 51 54 57 60 63 65 67 68 68 67 65 63 60 57 54 51 48 43 39 36 34 32 32 32 33 35 40 47 55 64
14 16 15 15 18 22 25 28 31 34 38 42 45 48 51 55 57 60 62 64 63 62 61 60 58 56 54 52 50 47 45 43 41 40 38 37 35 34 33 32 32 33 37 44
15 18 18 18 21 25 29 32 35 39 43 46 48 51 55 58 60 62 62 59 58 57 57 56 55 54 53 52 51 49 48 46 46 45 44 43 41 39 37 36 36 35 33 34
19 20 20 22 26 30 34 37 40 43 46 49 53 54 56 59 60 58 55 55 56 56 57 57 57 56 55 54 53 52 52 52 51 51 49 47 46 44 41 40 38 37 35 33
24 26 26 27 30 33 37 40 43 45 48 51 53 53 54 56 55 54 54 55 56 57 58 58 57 57 56 54 53 53 52 53 53 53 53 51 49 47 45 42 40 39 37 35
25 27 29 31 33 36 39 41 43 46 49 52 55 56 55 54 52 51 52 53 55 56 57 57 57 56 54 52 51 50 50 50 50 52 52 51 49 47 46 44 42 40 39 38
25 27 29 32 35 37 39 42 45 49 53 56 57 57 56 52 49 49 50 53 55 56 56 56 56 54 52 50 49 47 46 45 45 46 48 48 48 46 45 44 42 40 39 38
27 30 32 34 36 39 42 45 48 51 54 55 56 55 53 50 48 48 50 53 55 56 57 57 56 54 51 48 45 43 41 39 38 39 40 41 42 42 42 42 40 39 39 39
27 30 32 34 38 42 45 47 48 51 53 55 55 54 51 48 47 48 50 53 55 56 57 56 55 54 50 47 44 41 38 35 33 32 32 34 35 36 37 37 37 37 37 37
26 29 32 35 39 42 43 44 47 50 53 54 54 53 49 46 46 47 50 52 54 56 56 56 55 53 51 47 44 40 35 30 27 25 25 25 27 29 30 31 32 32 33 34
25 29 32 34 37 39 41 43 46 49 52 54 54 53 49 45 45 47 49 51 53 55 56 56 55 53 51 48 44 40 34 28 24 21 19 19 19 22 24 26 27 28 29 31
27 30 32 34 37 40 42 44 47 50 52 53 54 52 48 45 44 45 47 50 52 54 56 56 55 54 52 48 45 40 34 28 23 20 15 12 11 12 16 19 22 24 25 27
29 31 33 35 38 41 43 45 47 50 52 52 53 52 47 44 43 44 45 49 51 53 55 56 55 53 52 49 44 40 35 29 24 19 14 8 2 5 9 13 16 19 21 23
29 31 33 34 37 40 42 44 46 49 51 51 52 51 47 44 42 42 44 47 49 52 54 55 54 53 51 49 44 41 36 30 25 20 16 11 7 5 7 9 12 15 18 20
31 32 33 34 37 40 42 44 46 48 50 50 51 51 48 44 42 40 42 44 46 49 51 53 54 53 51 48 44 41 37 32 27 22 18 15 12 10 10 11 11 13 15 16
32 33 34 35 37 41 43 44 45 48 49 49 50 51 49 45 42 39 40 42 43 46 48 51 53 53 51 47 43 39 36 33 29 25 21 19 17 15 13 11 10 11 12 13
32 33 34 35 37 40 43 44 45 48 50 50 49 50 50 46 42 38 38 39 41 43 45 48 50 52 51 47 42 39 35 32 29 26 24 22 20 17 15 13 11 11 11 12
32 33 34 36 38 40 42 43 45 47 49 50 49 49 50 48 43 39 36 36 37 39 41 44 47 49 50 48 43 38 35 30 27 25 23 21 20 19 18 16 15 14 14 14
33 34 35 37 38 40 42 43 44 46 48 49 48 48 49 48 45 40 36 33 34 35 37 39 42 44 47 47 44 40 36 32 28 25 23 22 21 20 19 18 18 18 19 20
34 35 36 38 39 41 42 43 44 45 47 48 48 47 47 47 45 41 36 33 32 33 34 35 37 39 41 43 43 39 36 33 30 26 24 23 22 21 21 21 21 22 23 24
35 36 37 39 40 42 43 43 44 45 46 47 47 46 45 46 45 42 36 31 29 29 30 31 32 34 36 38 39 37 35 32 30 27 25 24 23 23 23 24 25 25 26 28
37 38 39 40 41 42 43 44 44 44 45 46 46 45 43 43 44 43 38 32 28 26 26 26 28 29 30 32 34 34 33 31 29 27 26 24 24 23 23 23 24 25 27 28
38 39 40 41 42 43 43 44 44 44 44 44 44 43 42 41 41 41 39 33 28 24 23 23 23 24 25 26 27 29 30 29 27 26 25 24 23 22 22 22 23 24 26 26
42 43 43 43 43 44 44 44 44 44 44 43 43 42 41 40 40 40 39 34 29 23 20 19 19 20 20 20 21 23 24 25 25 24 22 22 21 21 20 20 20 22 23 23
45 46 45 44 44 44 43 43 42 42 42 42 41 41 40 39 38 38 38 35 30 24 20 17 16 16 16 16 16 17 17 19 20 21 20 20 19 20 19 19 19 19 19 20
44 46 46 45 44 44 42 41 41 40 40 39 39 39 38 37 36 37 37 35 30 24 19 16 15 14 13 12 12 12 12 12 14 15 16 16 17 17 18 19 19 19 19 20
43 44 46 45 44 43 41 40 39 38 37 37 37 36 36 35 35 35 35 34 31 26 20 16 14 13 12 11 10 8 7 7 8 9 10 11 11 13 14 15 16 17 17 17
Wind_Direction
336 335 337 332 328 325 324 324 325 326 326 326 327 327 326 324 322 320 319 316 314 312 310 309 308 306 305 303 302 300 299 297 294 291 288 284 280 275 270 264 258 254 250 247
349 349 351 341 334 329 326 326 326 327 327 327 328 327 327 324 321 320 318 317 316 315 314 312 311 308 306 303 300 297 294 291 288 286 284 282 279 276 273 269 266 263 258 253
354 350 349 344 336 330 329 330 331 332 331 330 330 331 330 326 325 324 322 322 321 320 317 314 312 309 305 301 297 292 288 285 282 282 281 279 277 275 271 267 265 265 263 262
350 346 346 341 336 335 334 335 336 334 333 334 334 334 331 327 326 326 327 327 326 324 320 317 313 309 305 301 296 291 285 281 278 277 276 276 275 274 271 267 264 262 261 259
345 343 341 338 338 336 336 337 336 336 337 336 334 333 332 329 329 330 332 331 330 329 325 322 318 314 309 304 298 292 287 282 277 275 274 272 272 270 269 266 263 259 256 254
335 335 336 336 337 337 337 336 337 337 337 337 336 336 336 334 333 334 335 335 334 333 330 327 323 320 317 311 305 298 291 285 279 274 272 270 268 266 265 263 260 256 252 250
329 332 334 335 336 336 336 338 339 340 340 340 339 337 336 335 336 337 338 339 338 338 336 333 331 327 323 318 313 306 299 292 284 277 272 268 265 263 261 259 256 252 249 247
330 333 334 335 335 338 340 341 342 342 340 339 338 337 336 336 338 340 341 341 341 341 340 338 337 335 331 327 322 316 309 301 291 282 275 269 264 260 257 255 252 248 245 242
328 330 331 334 339 342 343 342 341 340 339 340 340 339 338 339 340 343 344 344 344 345 345 344 343 341 339 335 331 326 318 310 300 289 279 272 265 260 255 251 247 244 240 237
325 328 333 339 342 341 340 340 340 340 340 341 342 341 340 341 343 345 347 347 348 349 350 349 348 347 346 344 341 337 329 321 313 300 287 277 266 257 251 245 241 237 234 231
327 331 335 338 339 339 339 340 340 341 342 343 343 343 342 343 345 347 350 351 352 354 354 354 353 353 352 351 349 347 343 336 329 319 305 286 268 254 245 237 232 229 227 225
330 332 334 336 338 340 341 341 342 343 345 345 345 345 345 345 346 350 352 354 355 357 358 358 358 358 357 357 357 356 354 351 347 340 328 305 272 246 231 225 221 219 218 218
329 330 333 336 338 340 341 342 343 344 345 346 347 346 346 346 347 351 353 355 357 359 0 2 3 3 3 4 4 5 4 3 3 2 0 356 311 215 209 207 205 206 206 206
327 330 333 335 337 339 341 342 343 345 346 347 348 348 347 347 348 350 354 357 358 0 3 4 6 6 7 8 10 11 13 14 15 19 26 39 64 113 150 166 178 185 188 192
328 331 332 333 335 337 340 342 343 345 346 347 349 350 348 347 348 349 353 357 359 2 4 6 8 9 9 11 13 17 19 22 25 32 40 53 69 92 115 132 146 161 173 183
327 330 332 333 334 336 339 341 343 345 347 348 350 351 350 348 348 349 352 356 359 2 5 8 11 12 12 14 16 20 24 29 35 41 50 61 72 84 96 112 129 146 159 169
326 329 331 332 333 334 337 341 343 345 347 348 350 352 352 350 348 347 349 354 358 2 5 9 13 15 16 17 19 22 26 32 39 46 54 63 69 77 82 91 108 127 142 151
323 326 328 330 331 333 337 340 343 345 346 348 349 351 352 351 349 347 348 352 357 1 5 9 14 17 18 20 22 25 28 33 39 46 52 58 63 68 75 82 90 101 114 127
322 325 327 328 330 332 335 339 341 343 345 347 348 349 351 352 351 348 347 350 355 359 4 9 14 18 20 23 26 30 34 39 44 47 51 57 62 67 73 78 83 94 105 112
319 321 323 326 328 331 333 336 339 341 343 345 346 347 349 351 353 350 348 348 352 356 1 7 13 19 23 26 29 33 37 42 46 51 56 60 65 70 75 81 87 96 103 110
314 317 320 323 326 328 330 332 335 338 340 342 344 345 347 349 352 352 350 348 349 353 359 4 11 17 24 27 30 34 38 42 46 52 59 64 69 75 80 85 90 96 103 108
311 314 317 321 323 324 326 328 331 334 337 339 340 342 345 347 350 351 352 349 348 350 355 1 8 15 22 27 31 34 38 42 47 53 60 66 72 78 84 89 95 101 106 110
308 310 313 316 318 320 322 324 327 330 333 335 337 339 342 344 348 350 351 350 347 347 350 356 4 12 19 25 30 35 39 42 47 52 59 66 71 77 85 92 99 106 111 113
305 306 308 311 313 315 317 320 322 325 328 331 333 336 339 341 344 347 349 350 348 344 345 349 356 4 13 21 28 33 38 43 47 52 57 64 71 77 85 92 100 107 112 115
302 303 305 307 309 310 312 315 318 320 322 326 330 332 335 337 341 344 347 348 347 343 340 341 346 353 2 12 22 28 34 42 48 53 59 65 71 77 85 92 100 107 112 114
299 301 302 305 306 306 308 310 313 315 317 322 326 329 331 334 337 340 343 345 346 342 335 332 334 340 346 355 8 19 27 37 48 55 62 68 74 79 86 93 100 105 110 114
297 299 301 302 303 304 305 307 309 311 314 318 322 325 328 330 333 336 339 342 343 341 334 325 322 325 331 336 343 358 16 32 46 58 65 73 79 87 94 101 106 110 113 116
Height
5846 5844 5841 5838 5836 5832 5829 5825 5820 5814 5808 5801 5794 5786 5777 5767 5757 5747 5737 5727 5716 5705 5693 5683 5672 5662 5653 5644 5636 5628 5622 5618 5614 5611 5610 5608 5607 5606 5605 5606 5607 5609 5613 5617
5845 5842 5840 5837 5833 5829 5825 5820 5815 5809 5803 5795 5788 5779 5770 5759 5748 5737 5726 5714 5702 5690 5679 5668 5657 5648 5639 5631 5623 5616 5611 5606 5602 5599 5598 5596 5595 5594 5594 5594 5594 5594 5595 5597
5844 5841 5838 5835 5830 5825 5819 5814 5808 5801 5794 5785 5777 5769 5757 5744 5733 5722 5710 5699 5688 5677 5665 5654 5644 5634 5625 5616 5609 5602 5597 5592 5588 5585 5583 5581 5581 5581 5581 5581 5581 5582 5583 5584
5842 5840 5836 5834 5826 5819 5812 5806 5800 5792 5784 5775 5765 5756 5746 5733 5721 5710 5699 5687 5675 5663 5651 5639 5628 5618 5608 5600 5592 5585 5579 5575 5571 5568 5566 5565 5564 5564 5565 5566 5567 5569 5570 5572
5837 5834 5831 5827 5820 5814 5807 5800 5793 5784 5776 5767 5757 5749 5739 5724 5711 5698 5687 5675 5662 5649 5636 5623 5611 5600 5590 5581 5572 5565 5559 5554 5551 5548 5547 5546 5546 5547 5548 5549 5552 5554 5557 5560
5835 5830 5826 5822 5815 5808 5802 5795 5787 5778 5769 5759 5747 5735 5726 5713 5700 5689 5677 5664 5652 5639 5624 5610 5597 5584 5573 5562 5552 5544 5538 5533 5530 5527 5526 5526 5527 5529 5530 5533 5536 5539 5543 5547
5832 5827 5822 5816 5809 5804 5797 5790 5780 5769 5758 5747 5737 5726 5715 5704 5692 5680 5668 5656 5643 5629 5614 5598 5584 5570 5557 5545 5535 5526 5518 5513 5509 5507 5506 5506 5508 5510 5513 5516 5520 5524 5529 5534
5827 5822 5818 5810 5804 5797 5790 5780 5770 5760 5751 5742 5731 5719 5707 5696 5684 5673 5661 5649 5635 5620 5605 5589 5573 5558 5545 5532 5521 5511 5502 5495 5491 5488 5487 5488 5490 5492 5496 5500 5504 5509 5514 5520
5823 5819 5812 5805 5797 5789 5780 5772 5764 5756 5747 5736 5725 5713 5701 5689 5678 5667 5655 5642 5628 5613 5598 5582 5565 5550 5536 5523 5510 5499 5490 5482 5477 5473 5472 5472 5474 5476 5480 5485 5490 5495 5501 5507
5819 5813 5806 5799 5792 5785 5777 5770 5762 5752 5741 5730 5718 5706 5694 5683 5672 5661 5649 5636 5622 5608 5593 5577 5561 5545 5529 5515 5502 5490 5480 5472 5466 5462 5460 5459 5460 5463 5467 5472 5477 5483 5489 5496
5815 5809 5803 5797 5790 5783 5775 5767 5758 5748 5736 5724 5712 5700 5688 5678 5667 5656 5644 5631 5618 5603 5588 5573 5557 5541 5525 5511 5497 5485 5474 5466 5460 5455 5452 5450 5451 5453 5457 5462 5467 5473 5480 5486
5810 5805 5799 5793 5786 5778 5770 5761 5752 5741 5731 5719 5707 5695 5683 5673 5663 5652 5640 5628 5615 5601 5586 5570 5555 5539 5524 5509 5496 5484 5473 5464 5457 5452 5448 5445 5445 5447 5450 5455 5460 5466 5472 5479
5805 5799 5793 5787 5780 5772 5764 5756 5746 5736 5725 5714 5703 5690 5679 5669 5659 5649 5637 5625 5613 5599 5585 5570 5555 5540 5525 5510 5497 5485 5474 5465 5458 5452 5448 5445 5444 5446 5449 5453 5457 5463 5468 5474
5800 5795 5788 5782 5775 5768 5761 5752 5742 5732 5721 5710 5699 5687 5676 5665 5656 5646 5636 5624 5612 5599 5586 5571 5557 5542 5528 5514 5501 5489 5479 5470 5462 5456 5452 5449 5448 5449 5451 5454 5458 5463 5468 5473
5795 5789 5784 5777 5771 5764 5756 5748 5739 5729 5719 5708 5696 5684 5673 5663 5653 5644 5634 5623 5612 5600 5587 5574 5560 5546 5533 5519 5507 5496 5485 5476 5469 5463 5459 5456 5455 5455 5457 5459 5462 5466 5470 5474
5789 5784 5778 5772 5766 5759 5752 5744 5735 5725 5714 5704 5693 5682 5671 5660 5651 5642 5633 5623 5613 5602 5590 5578 5565 5551 5538 5526 5514 5503 5494 5486 5478 5473 5468 5466 5464 5464 5464 5466 5467 5470 5473 5476
5784 5779 5773 5767 5761 5754 5747 5739 5730 5720 5710 5700 5690 5680 5669 5658 5649 5641 5632 5623 5614 5604 5593 5582 5570 5558 5545 5533 5522 5512 5503 5495 5489 5484 5480 5477 5475 5473 5473 5473 5473 5475 5477 5479
5779 5774 5768 5762 5756 5749 5742 5734 5726 5716 5707 5697 5687 5677 5668 5657 5648 5639 5632 5624 5615 5606 5597 5587 5576 5565 5553 5541 5530 5521 5512 5505 5499 5495 5491 5488 5486 5484 5482 5481 5481 5481 5482 5484
5772 5767 5762 5756 5750 5743 5736 5729 5721 5713 5704 5694 5685 5675 5666 5656 5646 5637 5630 5623 5616 5609 5601 5591 5582 5572 5562 5551 5540 5531 5522 5515 5510 5505 5501 5498 5496 5494 5492 5490 5489 5489 5490 5491
5765 5760 5755 5749 5743 5737 5730 5724 5716 5708 5700 5692 5683 5673 5664 5655 5646 5637 5629 5622 5616 5609 5602 5595 5587 5579 5570 5560 5551 5542 5534 5527 5521 5516 5512 5509 5506 5504 5502 5501 5500 5499 5500 5501
5758 5753 5748 5742 5737 5731 5725 5718 5712 5704 5697 5688 5680 5672 5663 5653 5645 5637 5629 5622 5616 5610 5604 5598 5591 5584 5576 5569 5561 5553 5546 5539 5533 5528 5524 5520 5518 5515 5514 5512 5511 5511 5512 5513
5749 5745 5740 5735 5730 5724 5719 5712 5706 5699 5692 5685 5677 5669 5661 5653 5644 5635 5627 5621 5615 5610 5605 5600 5595 5588 5582 5576 5570 5563 5556 5550 5545 5539 5535 5532 5529 5527 5526 5525 5524 5524 5525 5526
5741 5737 5733 5728 5723 5718 5712 5706 5700 5694 5687 5681 5674 5666 5658 5650 5643 5635 5627 5620 5614 5610 5605 5601 5596 5591 5586 5581 5576 5571 5565 5560 5555 5551 5546 5543 5540 5538 5537 5536 5536 5536 5537 5538
5731 5727 5724 5720 5715 5710 5705 5700 5694 5688 5682 5675 5668 5662 5655 5647 5640 5633 5625 5619 5613 5608 5605 5601 5597 5593 5589 5585 5581 5577 5573 5568 5564 5560 5557 5553 5551 5549 5548 5547 5547 5547 5548 5549
5721 5717 5714 5711 5706 5701 5697 5692 5687 5682 5676 5670 5664 5657 5650 5644 5638 5631 5624 5617 5611 5606 5603 5600 5597 5594 5591 5588 5584 5581 5578 5575 5571 5568 5565 5562 5560 5558 5557 5556 5556 5556 5556 5557
5711 5706 5703 5700 5697 5692 5689 5685 5680 5675 5670 5664 5659 5653 5646 5640 5634 5628 5621 5615 5609 5604 5600 5598 5595 5593 5591 5588 5586 5583 5581 5579 5576 5574 5572 5570 5568 5566 5565 5565 5564 5564 5565 5566
5701 5697 5693 5690 5686 5683 5679 5676 5672 5668 5663 5658 5653 5647 5642 5636 5630 5624 5618 5612 5606 5601 5597 5595 5593 5591 5589 5588 5586 5584 5582 5581 5579 5577 5576 5574 5573 5572 5572 5571 5571 5571 5572 5572